Location: Palau
(42.3086°N, 3.1507°E)
Time: 20:29:02
(UTC+00:00)

STARLINK-1218 - Pass Details

Date: 26 May 2020
Orbit: 549 x 550 km, 53.0° (Epoch: 04 July)

Event Time Altitude Azimuth Distance (km) Brightness Sun altitude
Rises 02:58:57 0° 306° (NW) 2,722 7.1 -12.3°
Reaches altitude 10° 03:01:11 10° 305° (NW) 1,826 6.2 -12.0°
Maximum altitude 03:05:20 80° 220° (SW) 562 3.5 -11.4°
Drops below altitude 10° 03:09:28 10° 132° (SE) 1,816 6.3 -10.9°
Sets 03:11:41 0° 132° (SE) 2,707 7.2 -10.5°
